Skip Page Navigation
NASA JPL Caltech
NASA Logo - Jet Propulsion Laboratory + View the NASA Portal
+ Center for Near-Earth Object Studies
JPL Home Earth Solar System Stars & Galaxies Technology
JPL Solar System Dynamics
BODIES ORBITS EPHEMERIDES TOOLS PHYSICAL DATA DISCOVERY FAQ SITE MAP
IMPORTANT: The SSD Announcement email list is now available. Major changes are coming in the near future, including possible hostname and/or URL changes. To be notified of such changes, subscribe to this email list.

Please visit this page for more details.


JPL Small-Body Database Browser
Search: [ help ]  
442439 (2011 UU159)
Classification: Main-belt Asteroid          SPK-ID: 2442439
Ephemeris | Orbit Diagram | Orbital Elements | Mission Design | Physical Parameters | Discovery Circumstances ]

[ show orbit diagram ]
Orbital Elements at Epoch 2458600.5 (2019-Apr-27.0) TDB
Reference: JPL 14 (heliocentric ecliptic J2000)
 Element Value Uncertainty (1-sigma)   Units 
e .2926506563528039 1.5467e-07  
a 2.632345314866499 3.1582e-08 au
q 1.86198773072359 4.199e-07 au
i 6.235080737101158 1.1272e-05 deg
node 55.97100721455124 0.00014635 deg
peri 292.851395204654 0.00014755 deg
M 295.6039154950429 2.2074e-05 deg
tp 2458879.542065403536
(2020-Jan-31.04206540)
9.9149e-05 TDB
period 1559.957322211728
4.27
2.8074e-05
7.686e-08
d
yr
n .2307755442242403 4.1531e-09 deg/d
Q 3.402702899009408 4.0824e-08 au
  Orbit Determination Parameters
   # obs. used (total)      70  
   data-arc span      8952 days (24.51 yr)  
   first obs. used      1994-11-28  
   last obs. used      2019-06-02  
   planetary ephem.      DE431  
   SB-pert. ephem.      SB431-N16  
   condition code      0  
   norm. resid. RMS      .53533  
   source      ORB  
   producer      Otto Matic  
   solution date      2019-Sep-24 07:43:11  

Additional Information
 Earth MOID = .865988 au 
 Jupiter MOID = 2.05766 au 
 T_jup = 3.329 
[ show covariance matrix ]

Ephemeris | Orbit Diagram | Orbital Elements | Mission Design | Physical Parameters | Discovery Circumstances ]

Physical Parameter Table
Parameter Symbol Value Units Sigma Reference Notes
absolute magnitude H 17.0   n/a MPO440832  

442439 (2011 UU159)          Discovered 1994-Nov-28 by Spacewatch at Kitt Peak
Reference: Last Updated: 2015-09-02

Alternate Designations
 2011 UU159 = 1994 WM5 
Ephemeris | Orbit Diagram | Orbital Elements | Mission Design | Physical Parameters | Discovery Circumstances ]
ABOUT SSD CREDITS/AWARDS PRIVACY/COPYRIGHT GLOSSARY LINKS
FirstGov
(server date/time)  
NASA Home Page
Site Manager:   Ryan S. Park
Webmaster  Alan B. Chamberlin